Hourly Data Report for December 27, 2018

TORONTO CITY
ONTARIO
Current Station Operator: ECCC - MSC

43°40'00.000" N
79°24'00.000" W
112.50 m
6158355
71508
XTO

Download Data

Hourly Data (December 2018)
Hourly Data Report for December 27, 2018
TIME
LST
Temp Definition
°C
Dew Point Definition
°C
Rel Hum Definition
%
Precip. Amount Definition
mm

Wind Dir Definition
10's deg

Wind Spd Definition
km/h
Visibility Definition
km
Stn Press Definition
kPa
Hmdx Definition


Wind Chill Definition


Weather Definition


00:00 -3.5 -12.4 50 0.0 LegendMM LegendMM   102.09     LegendNANA
01:00 -4.2 -12.2 54 0.0 LegendMM LegendMM   102.10     LegendNANA
02:00 -4.8 -11.9 57 0.0 LegendMM LegendMM   102.16     LegendNANA
03:00 -5.0 -11.5 60 0.0 LegendMM LegendMM   102.24     LegendNANA
04:00 -5.7 -11.6 63 0.0 LegendMM LegendMM   102.23     LegendNANA
05:00 -5.7 -10.7 68 0.0 LegendMM LegendMM   102.15     LegendNANA
06:00 -5.1 -8.8 75 0.0 LegendMM LegendMM   102.13     LegendNANA
07:00 -4.1 -7.2 79 0.0 LegendMM LegendMM   102.13     LegendNANA
08:00 -4.5 -7.9 77 0.0 LegendMM LegendMM   102.07     LegendNANA
09:00 -3.7 -6.6 80 0.0 LegendMM LegendMM   102.03     LegendNANA
10:00 -2.6 -4.9 84 0.0 LegendMM LegendMM   102.02     LegendNANA
11:00 -0.7 -5.4 71 0.0 LegendMM LegendMM   101.89     LegendNANA
12:00 -0.5 -4.9 72 0.0 LegendMM LegendMM   101.72     LegendNANA
13:00 -0.6 -4.0 78 0.0 LegendMM LegendMM   101.61     LegendNANA
14:00 -0.4 -3.6 79 0.0 LegendMM LegendMM   101.46     LegendNANA
15:00 -0.3 -3.8 78 0.0 LegendMM LegendMM   101.37     LegendNANA
16:00 0.1 -2.9 81 0.0 LegendMM LegendMM   101.24     LegendNANA
17:00 0.6 -2.5 79 0.0 LegendMM LegendMM   101.07     LegendNANA
18:00 1.3 -1.9 80 0.0 LegendMM LegendMM   100.97     LegendNANA
19:00 2.0 -1.2 79 0.0 LegendMM LegendMM   100.80     LegendNANA
20:00 2.6 -1.0 77 0.0 LegendMM LegendMM   100.61     LegendNANA
21:00 2.9 -0.6 78 0.0 LegendMM LegendMM   100.46     LegendNANA
22:00 3.0 0.0 81 0.0 LegendMM LegendMM   100.23     LegendNANA
23:00 3.2 1.1 86 0.6 LegendMM LegendMM   100.08     LegendNANA

Notes on Data Quality.

Legend

  • E = Estimated
  • M = Missing
  • NA = Not Available*
  • [empty] = Indicates an unobserved value
Date modified: